• Em Portugal
  • Lista de países
  • Para 7 dias
  • Temperatura da água
  • Mapas de satélite
  • Mapa do tempo
  • Widgets de tempo
  • user-avatar
    Iniciar Sessão

    Previsão horária em Lugiele

    Hoje, 18 Junho, Segunda-feira

    Tempo Temperatura Precipitação Vento Pressão Humidade
    00:00 +19°C° 0 mm 1 m/s 741 mmHg 79%
    01:00 +19°C° 0 mm 1 m/s 741 mmHg 80%
    02:00 +19°C° 0 mm 1 m/s 740 mmHg 85%
    03:00 +17°C° 0,2 mm 2 m/s 740 mmHg 87%
    04:00 +17°C° 0,2 mm 2 m/s 740 mmHg 88%
    05:00 +16°C° 0,2 mm 2 m/s 740 mmHg 90%
    06:00 +18°C° 0 mm 2 m/s 741 mmHg 86%
    07:00 +19°C° 0 mm 2 m/s 741 mmHg 82%
    08:00 +21°C° 0 mm 2 m/s 741 mmHg 78%
    09:00 +23°C° 0,7 mm 2 m/s 741 mmHg 74%
    10:00 +24°C° 0,7 mm 2 m/s 742 mmHg 70%
    11:00 +25°C° 0,7 mm 2 m/s 742 mmHg 66%
    12:00 +25°C° 0,5 mm 3 m/s 742 mmHg 65%
    13:00 +25°C° 0,5 mm 3 m/s 742 mmHg 64%
    14:00 +25°C° 0,5 mm 3 m/s 742 mmHg 63%
    15:00 +25°C° 0,4 mm 4 m/s 742 mmHg 65%
    16:00 +23°C° 0,4 mm 4 m/s 742 mmHg 67%
    17:00 +22°C° 0,4 mm 4 m/s 742 mmHg 69%
    18:00 +21°C° 0,1 mm 4 m/s 742 mmHg 72%
    19:00 +19°C° 0,1 mm 3 m/s 742 mmHg 75%
    20:00 +18°C° 0,1 mm 3 m/s 742 mmHg 78%
    21:00 +16°C° 0 mm 3 m/s 742 mmHg 80%
    22:00 +15°C° 0 mm 2 m/s 742 mmHg 82%
    23:00 +13°C° 0 mm 2 m/s 743 mmHg 84%

    Amanhã, 19 Junho, Terça-feira

    Tempo Temperatura Precipitação Vento Pressão Humidade
    00:00 +13°C° 0 mm 2 m/s 743 mmHg 83%
    01:00 +12°C° 0 mm 1 m/s 743 mmHg 82%
    02:00 +12°C° 0 mm 1 m/s 743 mmHg 81%
    03:00 +12°C° 0 mm 1 m/s 743 mmHg 80%
    04:00 +12°C° 0 mm 1 m/s 743 mmHg 79%
    05:00 +12°C° 0 mm 1 m/s 743 mmHg 79%
    06:00 +14°C° 0 mm 1 m/s 743 mmHg 74%
    07:00 +17°C° 0 mm 2 m/s 743 mmHg 69%
    08:00 +19°C° 0 mm 2 m/s 743 mmHg 64%
    09:00 +20°C° 0 mm 3 m/s 743 mmHg 63%
    10:00 +21°C° 0 mm 3 m/s 743 mmHg 61%
    11:00 +22°C° 0 mm 4 m/s 743 mmHg 60%
    12:00 +23°C° 0,1 mm 4 m/s 743 mmHg 61%
    13:00 +23°C° 0,1 mm 5 m/s 743 mmHg 61%
    14:00 +23°C° 0,1 mm 5 m/s 743 mmHg 62%
    15:00 +22°C° 0,1 mm 5 m/s 742 mmHg 66%
    16:00 +21°C° 0,1 mm 4 m/s 742 mmHg 70%
    17:00 +20°C° 0,1 mm 4 m/s 742 mmHg 75%
    18:00 +20°C° 0 mm 4 m/s 742 mmHg 78%
    19:00 +19°C° 0 mm 3 m/s 742 mmHg 81%
    20:00 +19°C° 0 mm 3 m/s 743 mmHg 83%
    21:00 +17°C° 0 mm 2 m/s 743 mmHg 87%
    22:00 +16°C° 0 mm 2 m/s 743 mmHg 90%
    23:00 +14°C° 0 mm 2 m/s 743 mmHg 93%

    Depois de amanhã, 20 Junho, Quarta-feira

    Tempo Temperatura Precipitação Vento Pressão Humidade
    00:00 +14°C° 0 mm 2 m/s 743 mmHg 94%
    01:00 +13°C° 0 mm 3 m/s 743 mmHg 94%
    02:00 +13°C° 0 mm 3 m/s 743 mmHg 94%
    03:00 +13°C° 0 mm 3 m/s 744 mmHg 95%
    04:00 +13°C° 0 mm 3 m/s 744 mmHg 95%
    05:00 +12°C° 0 mm 3 m/s 744 mmHg 96%
    06:00 +14°C° 0 mm 3 m/s 744 mmHg 87%
    07:00 +15°C° 0 mm 4 m/s 744 mmHg 79%
    08:00 +17°C° 0 mm 4 m/s 745 mmHg 71%
    09:00 +18°C° 0 mm 4 m/s 745 mmHg 67%
    10:00 +19°C° 0 mm 4 m/s 745 mmHg 62%
    11:00 +20°C° 0 mm 4 m/s 745 mmHg 58%
    12:00 +20°C° 0 mm 4 m/s 745 mmHg 57%
    13:00 +21°C° 0 mm 4 m/s 745 mmHg 56%
    14:00 +21°C° 0 mm 4 m/s 745 mmHg 55%
    15:00 +21°C° 0 mm 4 m/s 745 mmHg 56%
    16:00 +21°C° 0 mm 4 m/s 745 mmHg 58%
    17:00 +21°C° 0 mm 4 m/s 744 mmHg 59%
    18:00 +20°C° 0 mm 3 m/s 744 mmHg 65%
    19:00 +19°C° 0 mm 2 m/s 744 mmHg 71%
    20:00 +19°C° 0 mm 1 m/s 744 mmHg 77%
    21:00 +16°C° 0 mm 1 m/s 744 mmHg 80%
    22:00 +15°C° 0 mm 1 m/s 744 mmHg 83%
    23:00 +14°C° 0 mm 1 m/s 744 mmHg 87%

    21 Junho, Quinta-feira

    Tempo Temperatura Precipitação Vento Pressão Humidade
    00:00 +14°C° 0 mm 2 m/s 744 mmHg 87%
    01:00 +13°C° 0 mm 2 m/s 743 mmHg 88%
    02:00 +13°C° 0 mm 2 m/s 743 mmHg 88%
    03:00 +12°C° 0 mm 3 m/s 743 mmHg 88%
    04:00 +12°C° 0 mm 3 m/s 742 mmHg 87%
    05:00 +12°C° 0 mm 3 m/s 742 mmHg 87%
    06:00 +14°C° 0 mm 3 m/s 742 mmHg 81%
    07:00 +18°C° 0 mm 3 m/s 741 mmHg 75%
    08:00 +20°C° 0 mm 4 m/s 741 mmHg 68%
    09:00 +21°C° 0 mm 4 m/s 741 mmHg 63%
    10:00 +23°C° 0 mm 4 m/s 740 mmHg 59%
    11:00 +25°C° 0 mm 5 m/s 740 mmHg 54%
    12:00 +26°C° 0 mm 5 m/s 739 mmHg 54%
    13:00 +26°C° 0 mm 5 m/s 738 mmHg 54%
    14:00 +27°C° 0 mm 5 m/s 737 mmHg 54%
    15:00 +27°C° 0,2 mm 4 m/s 737 mmHg 59%
    16:00 +27°C° 0,2 mm 4 m/s 736 mmHg 63%
    17:00 +26°C° 0,2 mm 4 m/s 735 mmHg 68%
    18:00 +25°C° 1,2 mm 4 m/s 734 mmHg 75%
    19:00 +22°C° 1,2 mm 4 m/s 734 mmHg 82%
    20:00 +21°C° 1,2 mm 3 m/s 733 mmHg 88%
    21:00 +20°C° 1,7 mm 4 m/s 733 mmHg 91%
    22:00 +19°C° 1,7 mm 4 m/s 732 mmHg 93%
    23:00 +18°C° 1,7 mm 4 m/s 732 mmHg 95%

    22 Junho, Sexta-feira

    Tempo Temperatura Precipitação Vento Pressão Humidade
    00:00 +16°C° 0,4 mm 5 m/s 732 mmHg 95%
    01:00 +15°C° 0,4 mm 5 m/s 732 mmHg 94%
    02:00 +14°C° 0,4 mm 6 m/s 733 mmHg 93%
    03:00 +11°C° 0 mm 6 m/s 733 mmHg 93%
    04:00 +10°C° 0 mm 5 m/s 733 mmHg 93%
    05:00 +9°C° 0 mm 5 m/s 734 mmHg 93%
    06:00 +10°C° 0 mm 5 m/s 734 mmHg 88%
    07:00 +11°C° 0 mm 6 m/s 734 mmHg 83%
    08:00 +11°C° 0 mm 6 m/s 735 mmHg 78%
    09:00 +13°C° 0 mm 6 m/s 735 mmHg 73%
    10:00 +14°C° 0 mm 6 m/s 735 mmHg 68%
    11:00 +15°C° 0 mm 6 m/s 736 mmHg 63%
    12:00 +16°C° 0,1 mm 6 m/s 736 mmHg 59%
    13:00 +16°C° 0,1 mm 6 m/s 736 mmHg 56%
    14:00 +16°C° 0,1 mm 6 m/s 736 mmHg 52%
    15:00 +16°C° 0 mm 6 m/s 736 mmHg 54%
    16:00 +15°C° 0 mm 6 m/s 736 mmHg 56%
    17:00 +15°C° 0 mm 6 m/s 736 mmHg 58%
    18:00 +14°C° 0 mm 5 m/s 736 mmHg 63%
    19:00 +13°C° 0 mm 4 m/s 736 mmHg 68%
    20:00 +12°C° 0 mm 3 m/s 736 mmHg 73%
    21:00 +11°C° 0 mm 3 m/s 736 mmHg 76%
    22:00 +10°C° 0 mm 3 m/s 736 mmHg 78%
    23:00 +9°C° 0 mm 3 m/s 737 mmHg 81%

    23 Junho, Sábado

    Tempo Temperatura Precipitação Vento Pressão Humidade
    00:00 +9°C° 0 mm 3 m/s 737 mmHg 84%
    01:00 +8°C° 0 mm 3 m/s 737 mmHg 88%
    02:00 +8°C° 0 mm 3 m/s 737 mmHg 91%
    03:00 +7°C° 0 mm 3 m/s 737 mmHg 92%
    04:00 +7°C° 0 mm 3 m/s 737 mmHg 93%
    05:00 +7°C° 0 mm 3 m/s 737 mmHg 94%
    06:00 +9°C° 0 mm 3 m/s 737 mmHg 88%
    07:00 +11°C° 0 mm 3 m/s 737 mmHg 82%
    08:00 +13°C° 0 mm 3 m/s 737 mmHg 75%
    09:00 +14°C° 0,1 mm 3 m/s 737 mmHg 70%
    10:00 +15°C° 0,1 mm 4 m/s 737 mmHg 65%
    11:00 +17°C° 0,1 mm 4 m/s 737 mmHg 59%
    12:00 +17°C° 0,5 mm 4 m/s 737 mmHg 62%
    13:00 +16°C° 0,5 mm 5 m/s 737 mmHg 65%
    14:00 +16°C° 0,5 mm 5 m/s 737 mmHg 68%
    15:00 +15°C° 0,4 mm 5 m/s 737 mmHg 71%
    16:00 +15°C° 0,4 mm 5 m/s 737 mmHg 75%
    17:00 +14°C° 0,4 mm 5 m/s 737 mmHg 78%
    18:00 +14°C° 0,4 mm 4 m/s 737 mmHg 83%
    19:00 +13°C° 0,4 mm 4 m/s 737 mmHg 88%
    20:00 +12°C° 0,4 mm 3 m/s 737 mmHg 93%
    21:00 +11°C° 0,1 mm 3 m/s 738 mmHg 94%
    22:00 +11°C° 0,1 mm 3 m/s 738 mmHg 96%
    23:00 +10°C° 0,1 mm 3 m/s 739 mmHg 97%
    Mostrar mais